Hourly Data Report for October 20, 2015

All times are specified in Local Standard Time (LST). Add 1 hour to adjust for Daylight Saving Time where and when it is observed.

CORAL HARBOUR A
NUNAVUT

64°11'36.000" N
83°21'34.000" W
62.20 m
2301002
71915
YZS

Download Data

Hourly Data (October 2015)
Hourly Data Report for October 20, 2015
Temp Definition
°C
Dew Point Temp Definition
°C
Rel Hum Definition
%
Wind Dir Definition
10's deg

Wind Spd Definition
km/h
Visibility Definition
km
Stn Press Definition
kPa
Hmdx Definition


Wind Chill Definition


Weather Definition


TIME
00:00 Legend Double Dagger -5.3 -8.6 78 2 40 9.7 99.61   -14 Snow,Blowing Snow
01:00 Legend Double Dagger -5.2 -7.7 83 3 37 1.6 99.71   -14 Snow,Blowing Snow
02:00 Legend Double Dagger -5.6 -7.9 84 2 33 9.7 99.81   -14 Snow,Blowing Snow
03:00 Legend Double Dagger -5.8 -8.4 82 2 32 24.1 99.90   -14 Blowing Snow
04:00 Legend Double Dagger -5.4 -7.9 83 2 37 4.8 100.00   -14 Snow,Blowing Snow
05:00 Legend Double Dagger -5.6 -8.4 81 2 32 24.1 100.14   -14 Blowing Snow
06:00 Legend Double Dagger -5.4 -7.7 84 2 37 9.7 100.24   -14 Snow,Blowing Snow
07:00 Legend Double Dagger -5.7 -7.2 89 1 31 24.1 100.35   -14 Snow,Blowing Snow
08:00 Legend Double Dagger -6.2 -9.3 79 1 31 24.1 100.45   -15 Snow
09:00 Legend Double Dagger -6.3 -10.2 74 2 21 24.1 100.57   -13 Snow
10:00 Legend Double Dagger -6.2 -9.4 78 36 18 24.1 100.64   -13 Mostly Cloudy
11:00 Legend Double Dagger -4.9 -8.2 78 36 19 24.1 100.70   -11 Snow
12:00 Legend Double Dagger -5.2 -9.5 72 36 22 24.1 100.76   -12 Snow
13:00 Legend Double Dagger -4.7 -9.2 71 35 18 24.1 100.83   -11 Snow
14:00 Legend Double Dagger -5.2 -10.8 65 35 30 24.1 100.90   -13 LegendNANA
15:00 Legend Double Dagger -6.2 -10.8 70 35 25 24.1 100.97   -14 LegendNANA
16:00 Legend Double Dagger -7.2 -11.6 71 35 20 24.1 101.04   -14 Mainly Clear
17:00 Legend Double Dagger -7.8 -11.7 74 35 14 24.1 101.10   -14 LegendNANA
18:00 Legend Double Dagger -6.6 -10.8 72 36 16 24.1 101.13   -13 LegendNANA
19:00 Legend Double Dagger -6.6 -10.3 75 33 11 24.1 101.16   -12 Snow
20:00 Legend Double Dagger -6.9 -10.6 75 32 14 24.1 101.20   -13 Snow
21:00 Legend Double Dagger -8.3 -11.8 76 32 13 24.1 101.21   -14 Snow
22:00 Legend Double Dagger -12.0 -14.5 82 32 15 24.1 101.24   -19 Mainly Clear
23:00 Legend Double Dagger -11.7 -14.5 80 32 14 24.1 101.25   -19 LegendNANA

Notes on Data Quality.

Legend

  • E = Estimated
  • M = Missing
  • NA = Not Available
  • ‡ = Partner data that is not subject to review by the National Climate Archives
Date modified: